Wind_Speed
28 25 23 28 28 27 29 32 28 30 27 32 35 28 28 24 23 21 21 20 19 16 15 12 11 11 8 6 4 5 10 3 4 8 12 9 6 11 12 10 15 9 13
33 30 27 28 31 27 32 35 29 30 34 30 30 32 27 26 26 24 23 21 19 18 16 12 11 7 8 7 3 6 7 5 6 3 7 10 10 13 14 14 14 12 16
39 31 28 23 25 27 25 30 27 33 36 35 33 30 29 27 26 25 22 23 20 18 16 13 13 11 8 7 7 5 7 5 3 3 8 12 13 15 15 17 16 11 16
19 33 32 28 28 28 30 26 29 33 29 32 30 29 29 28 26 27 26 24 21 19 16 14 12 11 10 8 6 6 4 3 3 2 13 15 13 15 14 17 16 11 19
20 19 33 33 30 26 32 30 33 35 25 25 28 29 29 30 29 28 27 25 23 21 17 15 13 14 12 9 8 8 4 7 10 12 17 16 14 12 15 16 15 14 23
18 24 32 35 34 31 29 32 34 27 30 29 28 28 30 28 30 31 32 27 24 21 19 16 13 12 11 10 11 8 9 13 15 17 15 13 11 11 12 16 14 17 7
10 8 28 34 36 36 37 34 32 33 35 32 32 31 31 26 33 32 31 28 25 21 18 20 17 14 15 15 15 14 14 15 13 13 12 10 5 7 10 17 20 10 17
14 21 35 27 30 34 35 38 34 37 38 36 34 34 32 36 38 33 28 25 24 22 18 16 19 19 14 15 16 13 13 15 12 12 12 11 14 13 15 15 18 14 20
18 12 17 21 26 31 32 36 40 32 36 34 35 33 36 43 41 35 30 26 24 22 18 17 18 19 16 14 17 14 15 15 14 14 13 11 11 17 16 19 21 18 10
17 16 17 25 32 32 34 25 39 39 38 36 32 36 46 43 40 36 32 26 25 23 19 18 16 16 16 14 17 15 14 10 8 6 6 6 9 14 16 20 18 18 17
22 20 26 26 28 31 39 40 32 35 35 33 28 39 40 43 39 32 26 29 24 22 20 19 14 18 17 13 16 14 12 12 11 7 7 9 11 12 11 14 14 18 15
19 20 28 33 28 24 34 40 37 37 35 31 32 31 37 42 40 33 28 25 25 24 20 16 18 17 14 12 14 15 15 10 5 8 10 11 8 8 5 5 7 8 12
23 27 32 32 33 38 32 31 32 36 32 31 29 27 28 33 35 28 26 28 23 22 23 18 19 16 14 11 13 16 11 4 8 11 10 11 8 8 6 6 5 7 6
24 28 31 32 30 31 29 35 34 32 32 31 29 28 26 25 25 22 26 28 21 25 21 22 19 18 13 17 15 9 2 5 11 11 8 8 9 10 9 10 9 9 6
24 29 29 31 33 29 28 31 33 34 41 38 33 37 36 26 25 28 30 30 31 27 27 25 20 14 17 18 8 8 10 11 9 8 7 6 10 11 9 8 8 13 13
23 26 29 31 26 27 25 23 26 32 39 40 47 45 35 35 33 30 27 27 27 27 28 19 17 17 15 13 16 13 11 11 10 8 5 8 8 9 10 9 9 13 14
27 26 28 33 30 25 27 28 23 34 36 39 40 40 45 42 37 32 28 25 25 26 20 18 18 19 18 16 17 14 12 12 8 10 8 9 10 6 9 9 8 11 14
27 33 29 29 33 31 29 28 31 31 31 32 36 39 39 42 42 38 33 27 28 22 15 19 18 18 19 18 17 16 13 13 10 9 9 7 8 11 11 9 6 9 12
28 27 27 27 32 31 31 30 30 30 28 28 33 34 38 40 41 36 34 32 27 22 12 19 18 16 16 16 16 15 14 13 12 11 9 8 8 9 15 11 10 6 10
26 28 29 28 33 30 32 32 28 26 26 27 26 31 43 45 34 39 28 26 24 19 16 19 18 17 15 17 16 16 14 14 12 11 9 7 7 10 8 8 8 9 9
25 29 31 28 27 29 27 29 30 30 29 28 30 33 39 33 31 32 26 23 21 18 18 20 20 17 17 17 17 14 15 14 13 13 11 9 7 9 9 10 7 7 9
28 27 26 27 27 27 27 26 29 29 27 28 30 36 38 30 28 29 23 23 20 17 21 21 19 19 17 17 17 17 16 15 14 12 12 10 9 10 9 8 8 8 8
25 25 23 24 26 27 25 26 26 27 26 29 34 37 29 29 30 26 21 24 23 18 22 22 19 19 17 17 17 16 15 15 14 14 13 11 10 9 9 9 11 9 4
24 24 24 24 25 28 26 27 27 30 29 30 33 33 28 29 30 27 24 27 25 23 22 18 18 17 18 17 15 13 17 16 14 13 12 11 12 8 10 9 11 12 8
22 23 24 26 29 28 30 27 28 31 32 32 33 30 29 28 29 25 27 27 26 25 21 17 16 19 19 16 14 16 19 18 14 13 10 11 11 9 10 10 9 8 8
21 22 24 27 28 30 32 32 30 29 29 31 29 27 32 29 27 30 29 29 26 22 20 18 17 20 18 15 15 19 20 19 16 13 12 12 11 9 8 10 9 9 6
Wind_Direction
216 210 208 217 210 194 182 193 199 191 187 176 173 172 169 175 182 168 163 160 158 164 161 152 149 145 137 137 128 83 89 73 47 67 73 60 64 18 350 358 17 46 39
216 196 199 210 203 200 180 201 190 177 184 163 159 168 164 177 177 164 157 160 161 154 151 159 148 153 133 128 124 97 101 81 63 77 103 73 59 28 358 10 29 51 32
209 185 185 199 197 195 191 193 179 182 172 162 166 166 164 175 171 162 160 162 162 157 158 162 146 138 131 149 115 141 129 100 64 33 91 77 48 25 16 21 24 67 38
309 191 172 188 197 190 188 182 174 169 166 163 167 164 169 173 168 163 162 159 163 154 159 155 144 144 138 134 127 107 141 146 206 252 89 68 43 21 22 17 20 61 46
310 226 172 176 187 195 191 183 180 170 162 163 168 164 174 172 166 165 161 161 157 152 150 152 148 150 149 144 156 110 62 55 57 81 66 56 29 13 7 13 10 3 47
313 318 199 177 180 184 182 189 186 177 179 175 174 174 178 174 168 164 159 156 150 149 153 146 147 149 147 139 122 117 106 85 66 79 65 63 32 14 6 359 357 342 31
295 305 225 181 178 179 182 185 174 167 172 175 177 181 176 174 167 160 154 153 154 152 157 138 127 130 127 124 108 105 101 90 91 94 90 65 39 19 13 359 348 55 66
268 198 229 208 189 173 179 176 170 170 169 170 176 178 179 165 163 156 151 153 149 150 150 149 145 134 142 125 121 115 108 104 95 91 97 90 58 49 31 21 16 98 63
267 236 211 200 178 157 179 167 161 164 163 170 173 175 170 156 159 156 148 151 150 143 139 140 145 156 164 155 149 136 128 116 100 90 89 86 73 58 48 42 36 34 35
244 226 199 209 184 171 161 181 173 169 164 165 166 167 162 155 160 154 153 151 141 139 142 149 159 170 163 151 150 150 156 157 137 115 109 107 98 78 52 56 53 41 44
241 205 169 180 181 175 167 165 165 159 163 160 156 159 160 160 159 154 154 149 141 137 141 142 156 164 164 160 163 161 148 138 155 165 126 97 116 85 59 68 65 67 73
258 197 169 169 170 166 161 155 156 151 154 151 145 147 157 161 160 159 152 151 147 147 147 154 158 159 155 149 150 150 158 165 200 153 113 98 82 79 95 84 91 85 76
253 182 175 165 155 161 165 156 152 151 152 146 143 142 152 160 164 161 157 152 155 150 152 155 150 156 164 166 160 157 159 158 133 122 118 118 105 81 61 123 110 133 108
172 158 161 155 158 160 170 156 153 156 153 150 143 142 147 154 159 154 147 150 153 143 140 142 142 136 142 150 149 153 134 125 123 119 121 130 128 110 78 73 79 94 114
160 153 156 156 155 159 162 161 163 169 162 155 155 152 151 156 162 158 146 145 149 146 140 141 138 135 158 163 154 146 147 121 121 131 146 139 132 114 101 92 77 90 76
154 155 151 153 144 156 148 149 166 165 162 161 158 156 158 157 163 152 145 154 155 150 145 151 157 163 176 188 164 170 160 145 138 136 116 110 91 89 111 101 101 92 88
154 154 155 147 148 148 148 145 131 146 157 154 154 152 156 158 159 155 155 159 159 149 152 167 177 177 177 176 164 156 159 140 133 135 130 133 129 129 105 88 87 101 100
154 156 156 156 150 155 153 153 147 147 146 149 153 155 161 163 163 162 159 158 161 167 180 176 176 181 172 173 168 154 137 148 150 142 136 131 127 121 96 80 78 74 100
153 156 148 153 152 159 153 154 154 152 147 146 147 157 163 163 161 161 163 163 169 186 198 170 173 179 166 165 158 148 160 170 152 146 148 149 145 131 136 122 113 106 90
151 150 149 154 154 153 153 150 153 149 145 144 151 154 158 158 152 155 161 165 172 184 180 173 171 168 169 165 159 158 150 137 145 148 148 148 132 136 124 121 127 103 95
144 148 148 149 154 150 154 149 149 153 153 149 146 157 155 153 154 158 159 168 181 196 171 160 161 169 167 163 164 158 158 158 171 153 153 154 140 123 124 128 115 87 107
150 148 150 152 151 150 152 152 149 152 150 142 138 148 147 145 157 161 163 168 187 172 163 157 164 172 169 172 173 171 176 167 159 158 153 155 155 148 140 129 118 112 85
153 154 148 149 148 143 142 148 151 150 148 145 145 145 147 152 160 165 167 173 170 159 158 162 166 169 180 183 177 171 168 166 160 157 157 159 153 151 147 136 120 100 111
153 150 150 152 144 147 145 148 151 147 143 144 147 149 154 160 162 168 164 159 159 157 162 165 168 175 175 167 166 178 167 159 157 159 159 160 154 146 139 134 135 138 120
142 145 147 144 146 146 141 141 143 144 143 149 154 157 157 162 162 159 155 159 160 161 162 167 178 169 160 160 177 164 154 149 156 155 150 147 154 158 152 146 146 124 128
136 140 141 144 147 146 143 139 139 139 144 149 156 159 158 158 151 148 151 156 155 155 162 169 159 153 157 171 169 160 162 160 161 154 145 145 146 147 149 147 145 133 116
Height
673 674 676 678 681 686 693 700 705 712 720 723 724 737 747 755 763 762 768 772 776 780 781 786 788 790 792 797 798 795 794 795 797 799 800 802 804 803 801 797 796 793 792
664 665 669 674 680 680 690 697 706 702 716 720 725 737 743 755 760 760 765 771 776 778 782 787 788 790 791 796 798 795 795 796 798 799 801 803 803 803 801 798 796 795 792
660 653 660 672 677 681 689 696 698 708 714 717 726 737 741 752 756 759 764 770 775 777 781 787 786 789 793 794 796 797 797 798 799 799 801 802 804 804 803 800 796 794 793
658 650 648 664 676 682 686 694 701 707 715 718 726 730 740 750 754 758 763 767 774 776 782 786 787 789 792 794 796 796 797 798 798 798 800 802 804 806 803 800 797 797 796
647 651 639 654 670 681 686 694 698 708 713 720 727 732 741 748 750 755 761 768 770 776 781 783 786 788 791 793 795 796 798 796 797 799 803 804 808 807 805 802 799 799 797
647 653 652 651 662 674 684 691 696 701 709 719 728 734 742 745 747 751 757 765 770 776 779 780 785 788 790 794 794 798 798 797 801 801 804 809 811 810 806 803 799 799 798
652 644 647 651 658 665 675 683 691 696 705 717 727 735 741 741 746 751 756 763 769 773 780 779 785 788 791 794 796 800 800 801 802 804 807 809 811 810 807 803 800 800 801
648 652 654 654 657 661 672 679 686 696 703 716 725 734 735 737 741 751 758 766 768 773 778 778 783 788 794 794 798 801 802 805 805 807 809 811 812 811 808 805 802 803 802
639 640 642 646 654 657 667 676 683 690 700 713 723 729 731 736 738 749 755 765 771 771 775 779 783 787 793 794 799 801 803 805 807 808 810 812 814 812 810 807 805 803 803
634 637 635 647 652 652 658 673 679 687 698 710 717 723 728 733 739 748 753 763 767 768 774 779 783 788 792 794 798 801 803 805 808 810 811 811 813 813 811 810 809 808 808
629 631 632 641 645 652 659 666 671 679 695 705 713 720 726 730 741 749 755 756 761 768 773 778 783 788 791 794 798 801 803 805 806 809 810 811 813 813 814 812 812 811 811
621 626 629 633 645 655 657 661 668 684 695 703 711 718 726 732 741 747 752 755 759 766 773 777 784 789 793 795 798 801 802 804 806 809 811 812 814 814 814 812 812 813 814
616 623 626 633 641 653 653 658 673 680 692 700 708 717 726 734 739 744 749 752 761 767 771 777 784 790 793 796 799 801 802 804 805 807 812 812 814 814 814 813 812 813 814
608 616 624 628 636 643 654 655 667 678 689 696 704 714 724 732 737 742 745 749 762 767 772 780 785 790 795 797 800 802 803 804 805 808 812 812 812 813 815 815 814 814 816
610 615 622 629 637 645 654 658 667 677 680 688 699 706 715 727 735 743 740 750 760 766 773 782 787 791 796 798 800 802 802 805 807 809 811 812 812 813 815 815 816 816 817
608 615 620 630 635 645 654 663 672 678 686 690 691 700 715 724 735 739 745 754 761 767 776 782 786 791 795 797 799 801 802 805 807 809 811 812 812 813 815 816 818 818 818
606 613 620 622 635 648 656 663 671 681 688 695 699 703 703 715 729 740 748 756 763 769 776 781 784 787 791 794 797 800 802 805 808 810 812 814 814 815 816 817 819 819 820
606 612 618 621 632 647 655 663 669 677 683 694 701 704 711 717 727 738 747 759 767 770 774 778 782 785 788 792 795 798 801 805 808 810 812 813 814 815 817 819 820 820 820
608 614 618 627 635 647 654 663 671 677 683 690 699 708 715 722 731 741 748 756 763 768 772 776 780 784 787 791 794 797 800 804 807 810 813 813 814 815 817 820 821 821 821
608 614 620 629 637 645 652 657 668 675 683 690 699 706 714 723 732 738 749 756 763 767 770 774 779 784 787 790 794 797 800 803 808 810 813 814 814 815 817 819 821 822 822
609 617 622 631 637 640 648 653 663 675 682 688 693 703 711 722 731 738 747 756 763 766 767 771 777 784 787 790 794 797 800 803 808 810 813 815 815 816 818 820 821 822 823
612 617 624 630 635 641 649 658 664 675 685 692 697 709 713 723 733 739 746 753 760 763 765 770 777 782 786 790 793 797 799 803 806 810 811 814 816 818 819 821 823 823 823
613 619 623 629 635 640 649 658 667 676 687 694 699 706 716 724 734 741 744 751 757 762 766 771 776 781 786 790 793 796 799 802 805 808 810 813 816 820 820 822 824 825 825
614 617 623 631 635 644 653 662 670 678 685 694 701 707 716 726 733 739 744 748 755 761 767 772 776 781 785 788 792 796 799 803 805 808 811 812 815 819 821 822 824 825 826
616 622 629 633 641 647 653 662 672 677 684 695 703 710 717 726 733 739 742 749 755 761 766 772 777 780 785 789 791 794 798 803 805 807 810 813 816 819 822 823 824 825 826
623 628 632 638 645 651 655 662 673 680 687 694 704 710 716 725 731 738 743 749 755 762 768 773 777 781 785 787 793 795 797 802 806 807 811 813 817 819 822 824 825 826 827